Location: Unspecified
(43.4354°N, 0.0000°E)
Time: 01:40:30
(UTC+00:00)

Courier 1B - Pass Details

Date: 20 June 2019
Orbit: 962 x 1209 km, 28.3° (Epoch: 19 August)

Event Time Altitude Azimuth Distance (km) Brightness Sun altitude
Rises 22:07:11 0° 251° (WSW) 4,012 10.8 -18.1°
Reaches altitude 10° 22:10:35 10° 238° (WSW) 3,083 10.1 -18.4°
Maximum altitude 22:16:20 23° 189° (S) 2,284 9.0 -18.9°
Enters shadow 22:16:41 23° 186° (S) 2,289 8.9 -18.9°
Drops below altitude 10° 22:22:11 10° 141° (SE) 3,139 - -19.3°
Sets 22:25:41 0° 128° (SE) 4,102 - -19.6°
